Regional Weather Roundup
Issued by NWS

Home | Current Version | Previous Version | Graphics & Text | Print | Product List | Glossary On
Versions: 1 2 3 4 5 6 7 8 9 10 11 12 13 14 15 16 17 18 19 20 21 22 23 24 25 26 27 28 29 30 31 32 33 34 35 36 37 38 39 40 41 42 43 44 45 46 47 48 49 50
000
ASUS45 KPSR 051410
RWRAZ

ARIZONA REGIONAL HOURLY WEATHER ROUNDUP
NATIONAL WEATHER SERVICE PHOENIX AZ
700 AM MST TUE MAY 05 2015

NOTE: FAIR INDICATES FEW OR NO CLOUDS BELOW 12,000 FEET WITH NO
SIGNIFICANT WEATHER AND/OR OBSTRUCTIONS TO VISIBILITY.

AZZ001>003-036-051500-
NORTHWEST ARIZONA

CITY           SKY/WX    TMP DP  RH WIND       PRES   REMARKS
BULLHEAD CITY  MOSUNNY   66  55  68 S3        29.86R
KINGMAN        CLOUDY    56  52  86 SE6       29.94R
$$

AZZ004>008-015-016-018-051500-
NORTH CENTRAL ARIZONA

CITY           SKY/WX    TMP DP  RH WIND       PRES   REMARKS
GRAND CANYON   CLOUDY    45  43  93 SW5       30.00R
WILLIAMS       CLOUDY    45  43  93 W5        30.07R
PRESCOTT       CLOUDY    52  43  71 S3        29.98R
FLAGSTAFF      PTSUNNY   44  41  89 W7        30.00S
PAYSON         CLOUDY    50  48  93 VRB6      30.01R
PAGE           CLOUDY    58  50  75 CALM      29.89R
$$

AZZ009>014-017-051500-
NORTHEAST ARIZONA

CITY           SKY/WX    TMP DP  RH WIND       PRES   REMARKS
WINSLOW        PTSUNNY   54  43  66 SW12      29.94R
SAINT JOHNS    CLOUDY    49  43  80 SW9       29.97R
WINDOW ROCK    CLOUDY    46  40  79 S5        29.98R
SHOW LOW       CLOUDY    43  39  87 SW14      30.02R
$$

AZZ023-051500-
GREATER PHOENIX AREA

CITY           SKY/WX    TMP DP  RH WIND       PRES   REMARKS
PHOENIX        PTSUNNY   68  54  60 SE7       29.88R
GLENDALE       PTSUNNY   66  54  63 CALM      29.90R
LUKE AFB       PTSUNNY   67  54  63 SE3       29.88R
DEER VALLEY    CLOUDY    66  52  60 E5        29.89R
SCOTTSDALE     CLOUDY    66  53  63 SE5       29.91R
MESA-FALCON    PTSUNNY   64  54  68 SE9       29.90R
MESA-GATEWAY   PTSUNNY   64  55  72 SE7       29.91R
CHANDLER       PTSUNNY   66  54  63 CALM      29.90R
$$

AZZ027-028-051500-
SOUTHWEST MARICOPA COUNTY AND PINAL COUNTY

CITY           SKY/WX    TMP DP  RH WIND       PRES   REMARKS
CASA GRANDE    CLOUDY    63  52  67 SE3       29.89R
GILA BEND      PTSUNNY   61  53  74 S3        29.88R
$$

AZZ503-504-507>509-051500-
SOUTHEAST ARIZONA

CITY           SKY/WX    TMP DP  RH WIND       PRES   REMARKS
TUCSON         SUNNY     59  53  80 S6        29.97R
DAVIS-MONTHAN  SUNNY     58  51  77 S8        29.95R
RYAN FIELD       N/A     61  55  82 S3        29.96R
NOGALES        SUNNY     57  46  66 S3        29.99R
SIERRA VISTA   SUNNY     53  46  76 E2        30.01R
DOUGLAS        SUNNY     52  41  66 CALM      30.01R
SAFFORD        MOSUNNY   56  50  80 SE6       29.95R
$$

AZZ020-021-025-026-031-051500-
SOUTHWEST ARIZONA

CITY           SKY/WX    TMP DP  RH WIND       PRES   REMARKS
YUMA           MOSUNNY   66  54  65 CALM      29.86R
$$

CAZ031-033-041-043-047-048-061-051500-
SOUTHERN CALIFORNIA

CITY           SKY/WX    TMP DP  RH WIND       PRES   REMARKS
DOWNTOWN L.A.  CLOUDY    60  49  66 SE5       29.99R
L.A. AIRPORT   CLOUDY    58  51  78 SE6       30.00R
SAN DIEGO      CLOUDY    62  48  60 W6        30.01R
BURBANK        CLOUDY    57  49  74 E6        29.98R
ONTARIO        CLOUDY    56  49  77 W3        29.99R
RIVERSIDE      CLOUDY    56  49  77 W3        30.00R
PALM SPRINGS   SUNNY     64  47  53 SE5       29.87R
EL CENTRO NAS  MOSUNNY   67  43  41 SW10      29.87R
IMPERIAL       SUNNY     62  47  57 W8        29.85R
BLYTHE         MOSUNNY   63  60  90 CALM      29.86R
NEEDLES        PTSUNNY   67  51  56 SW3       29.85R
$$

NVZ020-UTZ003-051500-
SOUTHERN NEVADA-UTAH

CITY           SKY/WX    TMP DP  RH WIND       PRES   REMARKS
LAS VEGAS      MOSUNNY   65  38  36 S9        29.81R
SALT LAKE CITY CLOUDY    60  44  55 S3        29.85R
$$

NMZ009-TXZ055-051500-
NEW MEXICO-WEST TEXAS

CITY           SKY/WX    TMP DP  RH WIND       PRES   REMARKS
ALBUQUERQUE    MOSUNNY   52  47  83 S10       29.96S
EL PASO        MOSUNNY   63  40  42 W10       29.95R
$$


........................KEY........................
SKY/WX - SKY CONDITION/WEATHER
TMP    - TEMPERATURE IN FAHRENHEIT
DP     - DEW POINT IN FAHRENHEIT
RH     - RELATIVE HUMIDITY IN PERCENT
WIND   - DIRECTION AND SPEED IN MILES PER HOUR (MPH)
VRB    - VARIABLE WIND DIRECTION
PRES   - MEAN SEA LEVEL PRESSURE IN INCHES OF MERCURY
         F - FALLING PRESSURE   R - RISING PRESSURE
         S - STEADY PRESSURE
VSB    - VISIBILITY IN MILES
HX     - HEAT INDEX IN FAHRENHEIT
WCI    - WIND CHILL INDEX IN FAHRENHEIT
TC     - TEMPERATURE IN CELSIUS WHICH IS ALSO KNOWN AS
         TEMPERATURE IN CENTIGRADE
AFB    - AIR FORCE BASE
         LUKE AFB IS LUKE AIR FORCE BASE
         DAVIS-MONTHAN IS DAVIS-MONTHAN AIR FORCE BASE
NAS    - NAVAL AIR STATION
         EL CENTRO NAS IS EL CENTRO NAVAL AIR STATION
N/A    - NOT AVAILABLE




USA.gov is the U.S. government's official web portal to all federal, state and local government web resources and services.